Weather History for Moab, UT

Change the Weather History Date:

Wednesday, October 26, 2011

  Actual Average Record
Temperature  
Mean Temperature 44 °F 49 °F  
Max Temperature 50 °F 63 °F 82 °F (1950)
Min Temperature 37 °F 35 °F 15 °F (1932)
Degree Days  
Heating Degree Days 22 16  
Month to date heating degree days 272  
Since 1 July heating degree days 330  
Cooling Degree Days 0 0  
Month to date cooling degree days 4  
Year to date cooling degree days 1288  
Moisture  
Dew Point 37 °F    
Average Humidity 77    
Maximum Humidity 93    
Minimum Humidity 51    
Precipitation  
Precipitation 0.51 in 0.03 in 1.13 in (1940)
Month to date precipitation 0.98  
Year to date precipitation 7.32  
Sea Level Pressure  
Sea Level Pressure 30.02 in    
Wind  
Wind Speed 5 mph (North)    
Max Wind Speed 20 mph    
Max Gust Speed 17 mph    
Visibility 8 miles    
Events Rain    
T = Trace of Precipitation, MM = Missing Value Source: NWS Daily Summary

Daily Weather History Graph

Daily Weather History Graph

Search for Another Location

Airport:

Trip Planner

Search our weather history database for the weather conditions in past years. The results will help you decide how hot, cold, wet, or windy it might be!

Date:

Astronomy

Oct. 26, 2011 Rise Set
Actual Time 7:39 AM MDT 6:26 PM MDT
Civil Twilight 7:12 AM MDT 6:53 PM MDT
Nautical Twilight 6:40 AM MDT 7:24 PM MDT
Astronomical Twilight 6:10 AM MDT 7:55 PM MDT
Moon 7:30 AM MDT (10/26) 6:11 PM MDT (10/26)
Length of Visible Light 11h 41m
Length of Day
10h 46m
Waning Crescent, 0% of the Moon is Illuminated
Oct 26
Waning Crescent
Oct 26
New
Nov 2
First Quarter
Nov 10
Full
Nov 18
Last Quarter

Hourly Weather History & Observations

Time (MDT) Temp. Windchill Dew Point Humidity Pressure Visibility Wind Dir Wind Speed Gust Speed Precip Events Conditions
12:17 AM 48.2 °F - 44.6 °F 87% 29.99 in 10.0 mi Calm Calm - 0.00 in   Overcast
12:45 AM 46.4 °F - 44.6 °F 93% 30.00 in 2.5 mi Calm Calm - 0.13 in Rain Heavy Rain
12:53 AM 46.9 °F - 45.0 °F 93% 29.91 in 3.0 mi Calm Calm - 0.14 in Rain Rain
1:53 AM 46.9 °F - 44.1 °F 90% 29.91 in 10.0 mi WSW 4.6 mph - 0.03 in Rain Light Rain
2:05 AM 46.4 °F 43.5 °F 44.6 °F 93% 30.00 in 6.0 mi West 5.8 mph - 0.02 in Rain Rain
2:34 AM 46.4 °F - 42.8 °F 87% 30.00 in 10.0 mi Calm Calm - 0.04 in Rain Light Rain
2:45 AM 46.4 °F 41.1 °F 42.8 °F 87% 30.01 in 7.0 mi NNW 11.5 mph - 0.05 in Rain Rain
2:53 AM 45.0 °F 41.2 °F 39.9 °F 82% 29.94 in 5.0 mi North 6.9 mph - 0.06 in Rain Light Rain
3:27 AM 44.6 °F 38.1 °F 39.2 °F 81% 30.03 in 7.0 mi NW 13.8 mph - 0.05 in Rain Rain
3:53 AM 43.0 °F 37.7 °F 39.9 °F 89% 29.98 in 7.0 mi West 9.2 mph - 0.11 in Rain Rain
4:15 AM 42.8 °F 39.3 °F 39.2 °F 87% 30.03 in 7.0 mi WSW 5.8 mph - 0.04 in Rain Light Rain
4:53 AM 43.0 °F 38.8 °F 39.9 °F 89% 29.97 in 6.0 mi South 6.9 mph - 0.09 in Rain Rain
5:53 AM 42.1 °F 39.2 °F 39.9 °F 92% 29.96 in 10.0 mi SE 4.6 mph - 0.04 in Rain Light Rain
6:53 AM 42.8 °F - 39.2 °F 87% 30.00 in 10.0 mi Calm Calm - N/A Rain Light Rain
8:39 AM 42.8 °F 40.1 °F 39.2 °F 87% 30.02 in 10.0 mi West 4.6 mph - 0.01 in Rain Light Rain
8:53 AM 42.8 °F 41.1 °F 39.2 °F 87% 30.02 in 10.0 mi SW 3.5 mph - N/A Rain Light Rain
9:53 AM 43.0 °F 38.8 °F 39.9 °F 89% 30.01 in 10.0 mi WNW 6.9 mph - 0.02 in   Overcast
10:53 AM 44.1 °F 39.5 °F 39.9 °F 85% 30.00 in 10.0 mi NW 8.1 mph - 0.00 in   Overcast
11:53 AM 46.0 °F 41.9 °F 39.9 °F 79% 30.00 in 10.0 mi NW 8.1 mph - N/A   Overcast
12:15 PM 42.8 °F 38.0 °F 37.4 °F 81% 30.03 in 4.0 mi NE 8.1 mph 17.3 mph 0.02 in Rain Rain
12:22 PM 42.8 °F 40.1 °F 37.4 °F 81% 30.03 in 7.0 mi NNE 4.6 mph - 0.02 in Rain Light Rain
12:53 PM 46.0 °F 44.8 °F 37.0 °F 71% 29.99 in 10.0 mi WSW 3.5 mph - 0.02 in   Overcast
1:53 PM 50.0 °F - 36.0 °F 59% 29.96 in 10.0 mi NE 11.5 mph - N/A   Overcast
2:53 PM 48.9 °F - 33.1 °F 54% 29.97 in 10.0 mi NE 16.1 mph - N/A   Overcast
3:53 PM 48.9 °F - 32.0 °F 52% 29.99 in 10.0 mi ENE 13.8 mph - N/A   Overcast
4:53 PM 46.9 °F - 30.0 °F 52% 30.02 in 10.0 mi ENE 19.6 mph - N/A   Overcast
5:53 PM 46.0 °F 39.9 °F 28.9 °F 51% 30.03 in 10.0 mi ENE 13.8 mph - N/A   Overcast
6:53 PM 43.0 °F 36.0 °F 28.0 °F 56% 30.06 in 10.0 mi ENE 13.8 mph - N/A   Mostly Cloudy
7:53 PM 42.1 °F 35.7 °F 28.0 °F 58% 30.10 in 10.0 mi ENE 11.5 mph - N/A   Partly Cloudy
8:53 PM 39.0 °F 35.7 °F 28.9 °F 67% 30.12 in 10.0 mi ENE 4.6 mph - N/A   Clear
9:53 PM 39.0 °F 33.4 °F 27.0 °F 62% 30.14 in 10.0 mi NE 8.1 mph - N/A   Clear
10:53 PM 37.0 °F 31.6 °F 26.1 °F 65% 30.14 in 10.0 mi NNE 6.9 mph - N/A   Clear
11:53 PM 39.2 °F 33.6 °F 23.0 °F 52% 30.14 in 10.0 mi NNE 8.1 mph - N/A   Clear